Location: Newark
(27.9675°N, 86.8869°E)
Time: 02:03:40
(UTC+00:00)

Courier 1B Rocket - Pass Details

Date: 19 October 2019
Orbit: 920 x 1202 km, 28.2° (Epoch: 14 November)

Event Time Altitude Azimuth Distance (km) Brightness Sun altitude
Rises 04:29:59 0° 270° (W) 3,726 7.8 46.6°
Reaches altitude 10° 04:33:19 10° 254° (WSW) 2,825 7.4 47.0°
Maximum altitude 04:38:14 21° 208° (SSW) 2,205 7.5 47.6°
Drops below altitude 10° 04:43:24 10° 163° (SSE) 2,972 8.5 48.1°
Sets 04:47:02 0° 148° (SSE) 3,978 8.9 48.5°
